QTR42X EGLL-OTHH

Flight info

Callsign QTR42X
Flight time N/A
Altitude 35000
Route DET L6 DVR UL9 KONAN UL607 KOK DCT SISGA DCT RITAX DCT BANUX DCT BABEG DCT KUMOM DCT NIPEL DCT ABISO DCT ZARVE DCT KOTOR DCT TUPUS DCT MAVAR DCT BITLA UN132 KEA UL607 PAXIS Y707 OBRAN L321 RALSU/N0485F370 L321 REXUM M872 BDB Y214 RAPMA/N0520F290 Y214 ASPUS Y432 LADBO T142 LAEEB
Aircraft B77W/H-SDE1E2E3FGHIJ2J3J4J5M1RWXY/LB1D1

Departure

Time N/A
Airport London Heathrow Airport (EGLL)

Arrival

Time 2026-05-06 18:10
Airport Hamad International Airport (OTHH)
Time Latitude Longitude Altitude Speed Heading
2026-05-06 17:28 23.64799 45.48816 36946 ft 537 kts 99°
2026-05-06 17:29 23.64020 45.58136 36940 ft 537 kts 99°
2026-05-06 17:29 23.61296 45.90566 36996 ft 535 kts 98°
2026-05-06 17:30 23.58469 46.22852 36998 ft 536 kts 99°
2026-05-06 17:30 23.57014 46.39062 36839 ft 538 kts 98°
2026-05-06 17:30 23.55555 46.55308 36806 ft 535 kts 98°
2026-05-06 17:31 23.52577 46.87465 36836 ft 530 kts 99°
2026-05-06 17:31 23.51485 46.99050 36873 ft 529 kts 99°
2026-05-06 17:32 23.50724 47.07068 36870 ft 529 kts 99°
2026-05-06 17:32 23.49962 47.15048 36868 ft 530 kts 99°
2026-05-06 17:33 23.49195 47.23035 36853 ft 530 kts 99°
2026-05-06 17:33 23.48434 47.30966 36842 ft 530 kts 99°
2026-05-06 17:34 23.45550 47.60632 36878 ft 528 kts 98°
2026-05-06 17:34 23.42428 47.92379 36870 ft 527 kts 99°
2026-05-06 17:35 23.39223 48.24184 36757 ft 527 kts 98°
2026-05-06 17:35 23.37353 48.55990 36750 ft 526 kts 94°
2026-05-06 17:36 23.35333 49.03602 36799 ft 525 kts 94°
2026-05-06 17:36 23.33925 49.35145 36804 ft 527 kts 94°
2026-05-06 17:37 23.33428 49.46297 36908 ft 525 kts 94°
2026-05-06 17:37 23.33242 49.50274 36853 ft 526 kts 95°
2026-05-06 17:37 23.32876 49.58239 36797 ft 527 kts 95°
2026-05-06 17:38 23.32494 49.66206 36796 ft 527 kts 95°
2026-05-06 17:38 23.32091 49.74160 36790 ft 527 kts 95°
2026-05-06 17:39 23.31701 49.82121 36794 ft 526 kts 95°
2026-05-06 17:39 23.31305 49.90078 36794 ft 526 kts 94°
2026-05-06 17:40 23.30936 49.98022 36792 ft 526 kts 95°
2026-05-06 17:40 23.30980 50.05954 36775 ft 528 kts 78°
2026-05-06 17:41 23.32191 50.09713 36805 ft 528 kts 63°
2026-05-06 17:41 23.34153 50.13083 36793 ft 527 kts 49°
2026-05-06 17:41 23.39281 50.18631 36806 ft 524 kts 42°
2026-05-06 17:42 23.44529 50.24181 36808 ft 527 kts 43°
2026-05-06 17:42 23.49751 50.29825 36809 ft 530 kts 43°
2026-05-06 17:43 23.54963 50.35527 36805 ft 532 kts 43°
2026-05-06 17:43 23.60186 50.41246 36804 ft 532 kts 43°
2026-05-06 17:44 23.65410 50.46968 36807 ft 532 kts 43°
2026-05-06 17:44 23.70630 50.52687 36807 ft 531 kts 43°
2026-05-06 17:45 23.75829 50.58395 36805 ft 530 kts 43°
2026-05-06 17:45 23.81035 50.64097 36804 ft 529 kts 43°
2026-05-06 17:46 23.86220 50.69807 36811 ft 529 kts 44°
2026-05-06 17:46 23.91398 50.75541 36271 ft 537 kts 43°
2026-05-06 17:47 23.94008 50.78422 35532 ft 538 kts 43°
2026-05-06 17:47 23.96638 50.81322 34681 ft 539 kts 43°
2026-05-06 17:47 23.99287 50.84242 33791 ft 540 kts 43°
2026-05-06 17:47 24.01934 50.87161 32752 ft 542 kts 44°
2026-05-06 17:48 24.04585 50.90088 31757 ft 541 kts 44°
2026-05-06 17:48 24.07239 50.93021 30745 ft 542 kts 44°
2026-05-06 17:48 24.09879 50.95941 29985 ft 538 kts 44°
2026-05-06 17:48 24.12495 50.98838 29213 ft 531 kts 44°
2026-05-06 17:49 24.15072 51.01694 28504 ft 523 kts 44°
2026-05-06 17:49 24.17609 51.04507 27845 ft 515 kts 44°
2026-05-06 17:49 24.20110 51.07282 27208 ft 508 kts 44°
2026-05-06 17:49 24.22576 51.10018 26577 ft 501 kts 44°
2026-05-06 17:50 24.25005 51.12714 25967 ft 495 kts 44°
2026-05-06 17:50 24.27410 51.15385 25347 ft 488 kts 44°
2026-05-06 17:50 24.29783 51.18023 24745 ft 483 kts 44°
2026-05-06 17:50 24.32126 51.20628 24135 ft 478 kts 45°
2026-05-06 17:51 24.34451 51.23216 23541 ft 473 kts 45°
2026-05-06 17:51 24.36742 51.25766 22865 ft 468 kts 45°
2026-05-06 17:51 24.39011 51.28294 22236 ft 461 kts 45°
2026-05-06 17:51 24.41248 51.30788 21643 ft 455 kts 45°
2026-05-06 17:52 24.43450 51.33244 21055 ft 449 kts 45°
2026-05-06 17:52 24.45624 51.35670 20511 ft 443 kts 45°
2026-05-06 17:52 24.47775 51.38071 19949 ft 437 kts 45°
2026-05-06 17:52 24.49892 51.40434 19400 ft 432 kts 44°
2026-05-06 17:53 24.52114 51.42625 18842 ft 427 kts 37°
2026-05-06 17:53 24.54522 51.44514 18294 ft 422 kts 32°
2026-05-06 17:53 24.57015 51.46096 17694 ft 418 kts 26°
2026-05-06 17:53 24.59612 51.47476 17126 ft 412 kts 25°
2026-05-06 17:54 24.62191 51.48824 16565 ft 407 kts 25°
2026-05-06 17:54 24.64738 51.50173 16022 ft 401 kts 25°
2026-05-06 17:54 24.67223 51.51506 15504 ft 397 kts 26°
2026-05-06 17:54 24.69673 51.52814 14988 ft 392 kts 25°
2026-05-06 17:55 24.72122 51.54013 14466 ft 388 kts 23°
2026-05-06 17:55 24.74589 51.55180 13937 ft 384 kts 23°
2026-05-06 17:55 24.77030 51.56346 13388 ft 381 kts 23°
2026-05-06 17:55 24.79429 51.57507 13152 ft 369 kts 24°
2026-05-06 17:56 24.81755 51.58522 12958 ft 350 kts 14°
2026-05-06 17:56 24.84130 51.58683 12810 ft 335 kts 353°
2026-05-06 17:56 24.86320 51.58077 12319 ft 314 kts 339°
2026-05-06 17:56 24.88192 51.57002 11863 ft 297 kts 326°
2026-05-06 17:57 24.89750 51.55613 11620 ft 275 kts 321°
2026-05-06 17:57 24.91234 51.54199 10920 ft 288 kts 321°
2026-05-06 17:57 24.92738 51.52764 10331 ft 284 kts 320°
2026-05-06 17:57 24.94205 51.51359 9804 ft 275 kts 320°
2026-05-06 17:58 24.95682 51.50082 9262 ft 266 kts 332°
2026-05-06 17:58 24.97389 51.49245 8814 ft 276 kts 340°
2026-05-06 17:58 24.99222 51.48491 8285 ft 287 kts 341°
2026-05-06 17:58 25.01115 51.47698 7811 ft 292 kts 340°
2026-05-06 17:59 25.03008 51.46883 7465 ft 291 kts 340°
2026-05-06 17:59 25.04871 51.46071 7269 ft 285 kts 340°
2026-05-06 17:59 25.06676 51.45276 7102 ft 270 kts 340°
2026-05-06 17:59 25.08374 51.44528 6585 ft 261 kts 340°
2026-05-06 18:00 25.10044 51.43791 6458 ft 263 kts 340°
2026-05-06 18:00 25.11777 51.43028 6309 ft 272 kts 340°
2026-05-06 18:00 25.13537 51.42251 6142 ft 273 kts 340°
2026-05-06 18:00 25.15305 51.41530 5999 ft 266 kts 349°
2026-05-06 18:01 25.17126 51.41529 5841 ft 264 kts 17°
2026-05-06 18:01 25.18717 51.42478 5613 ft 261 kts 44°
2026-05-06 18:01 25.19690 51.44132 5348 ft 260 kts 72°
2026-05-06 18:01 25.19831 51.46125 5057 ft 265 kts 99°
2026-05-06 18:02 25.19412 51.47421 4910 ft 266 kts 119°
2026-05-06 18:02 25.18236 51.48977 4728 ft 265 kts 133°
2026-05-06 18:02 25.16895 51.50340 4517 ft 265 kts 136°
2026-05-06 18:02 25.15520 51.51686 4320 ft 263 kts 136°
2026-05-06 18:03 25.14151 51.53013 4196 ft 258 kts 136°
2026-05-06 18:03 25.12825 51.54284 4031 ft 245 kts 136°
2026-05-06 18:03 25.11551 51.55500 3659 ft 242 kts 136°
2026-05-06 18:03 25.10285 51.56714 3490 ft 240 kts 136°
2026-05-06 18:04 25.09034 51.57914 3357 ft 237 kts 136°
2026-05-06 18:04 25.07784 51.59109 3124 ft 238 kts 136°
2026-05-06 18:04 25.06530 51.60310 2940 ft 238 kts 136°
2026-05-06 18:04 25.05483 51.61660 2719 ft 230 kts 111°
2026-05-06 18:05 25.05215 51.63338 2618 ft 218 kts 86°
2026-05-06 18:05 25.05342 51.64971 2552 ft 210 kts 82°
2026-05-06 18:05 25.05543 51.66540 2494 ft 206 kts 73°
2026-05-06 18:05 25.06113 51.68024 2516 ft 218 kts 61°
2026-05-06 18:06 25.07153 51.69248 2509 ft 227 kts 30°
2026-05-06 18:06 25.08687 51.69624 2485 ft 229 kts 355°
2026-05-06 18:06 25.10133 51.68980 2481 ft 226 kts 321°
2026-05-06 18:06 25.11257 51.67797 2501 ft 224 kts 321°
2026-05-06 18:07 25.12494 51.66739 2504 ft 227 kts 329°
2026-05-06 18:07 25.13849 51.65863 2384 ft 232 kts 333°
2026-05-06 18:07 25.15327 51.65052 2069 ft 233 kts 338°
2026-05-06 18:07 25.16786 51.64395 1782 ft 223 kts 339°
2026-05-06 18:08 25.18157 51.63798 1518 ft 198 kts 339°
2026-05-06 18:08 25.19352 51.63271 1268 ft 173 kts 339°
2026-05-06 18:08 25.20447 51.62789 1067 ft 168 kts 339°
2026-05-06 18:08 25.21491 51.62326 892 ft 154 kts 340°
2026-05-06 18:09 25.22435 51.61910 682 ft 140 kts 341°
2026-05-06 18:09 25.23372 51.61501 572 ft 147 kts 339°
2026-05-06 18:09 25.24272 51.61089 369 ft 134 kts 339°
2026-05-06 18:09 25.25132 51.60717 150 ft 135 kts 341°
2026-05-06 18:10 25.26007 51.60339 28 ft 132 kts 341°
2026-05-06 18:10 25.26749 51.60011 21 ft 84 kts 336°
2026-05-06 18:10 25.27074 51.59969 23 ft 11 kts
2026-05-06 18:10 25.27120 51.60007 28 ft 7 kts 79°
2026-05-06 18:11 25.27097 51.60057 29 ft 8 kts 134°
2026-05-06 18:11 25.27045 51.60090 27 ft 12 kts 159°
2026-05-06 18:11 25.26887 51.60160 27 ft 29 kts 158°
2026-05-06 18:11 25.26703 51.60244 28 ft 29 kts 152°
2026-05-06 18:12 25.26565 51.60304 31 ft 9 kts 160°
2026-05-06 18:12 25.26510 51.60335 30 ft 9 kts 135°
2026-05-06 18:12 25.26509 51.60403 31 ft 10 kts 60°
2026-05-06 18:12 25.26522 51.60424 30 ft 2 kts 56°
2026-05-06 18:13 25.26554 51.60496 26 ft 8 kts 61°
2026-05-06 18:13 25.26588 51.60588 27 ft 19 kts 75°
2026-05-06 18:13 25.26564 51.60733 27 ft 14 kts 113°
2026-05-06 18:13 25.26539 51.60794 27 ft 9 kts 116°
2026-05-06 18:14 25.26528 51.60870 27 ft 14 kts 80°
2026-05-06 18:14 25.26557 51.60925 27 ft 5 kts 46°
2026-05-06 18:14 25.26615 51.60967 27 ft 10 kts 30°
2026-05-06 18:14 25.26652 51.60989 27 ft 4 kts 26°
2026-05-06 18:15 25.26655 51.60991 27 ft 0 kts 26°